Weather Roundup
Issued by NWS Springfield, MO

Home | Current Version | Previous Version | Text Only | Print | Product List | Glossary On
Versions: 1 2 3 4 5 6 7 8 9 10 11 12 13 14 15 16 17 18 19 20 21 22 23 24 25 26 27 28 29 30 31 32 33 34 35 36 37 38 39 40 41 42 43 44 45 46 47 48 49 50
000
NZUS99 KSGF 021357
HRRSGF

HOURLY WEATHER
NATIONAL WEATHER SERVICE SPRINGFIELD MO
900 AM CDT WED SEP 02 2015

......SGF CWA......

CITY           SKY/WX    TMP DP  RH WIND       PRES   REMARKS
SPRINGFIELD    MOSUNNY   76  67  73 S10       30.11S
JOPLIN         SUNNY     77  68  73 S12G23    30.09S
WEST PLAINS    SUNNY     75  69  81 S5        30.15F
ROLLA          MOSUNNY   78  68  71 S7        30.12R
BRANSON        PTSUNNY   75  68  78 SE3       30.14S

......SURROUNDING SGF CWA......

CITY           SKY/WX    TMP DP  RH WIND       PRES   REMARKS
CHANUTE        SUNNY     75  68  78 S14       30.06R
PARSONS        SUNNY     74  69  85 S7        30.06S
COFFEYVILLE    SUNNY     74  69  85 S9        30.06R
EMPORIA        CLOUDY    74  66  76 S10       30.02R
HARRISON AR    SUNNY     73  68  84 CALM      30.14S

......KANSAS AND MISSOURI......

CITY           SKY/WX    TMP DP  RH WIND       PRES   REMARKS
KANSAS CTY INT CLOUDY    72  67  84 NE5       30.07R
SEDALIA        PTSUNNY   76  68  76 SW8       30.11R
ST JOSEPH      LGT RAIN  71  69  93 SE8       30.04S FOG
ST LOUIS       MOSUNNY   82  68  62 SW10      30.11S
WICHITA        MOSUNNY   76  65  68 S15       30.01S
TOPEKA         CLOUDY    73  68  84 S6        30.02S
OLATHE         CLOUDY    72  67  84 S6        30.06R

......TENNESSEE......

CITY           SKY/WX    TMP DP  RH WIND       PRES   REMARKS
MEMPHIS        NOT AVBL
NASHVILLE      CLOUDY    80  70  71 CALM      30.15R

......ARKANSAS.......

CITY           SKY/WX    TMP DP  RH WIND       PRES   REMARKS
FAYETTEVILLE   SUNNY     74  70  87 S6        30.12F
FT SMITH       SUNNY     75  68  78 E3        30.10S
LITTLE ROCK    MOSUNNY   79  70  74 CALM      30.10S

......OKLAHOMA.......

CITY           SKY/WX    TMP DP  RH WIND       PRES   REMARKS
TULSA          MOSUNNY   76  69  79 S10       30.04F
PONCA CITY     MOSUNNY   76  67  73 S6        30.03S
MCALESTER      MOSUNNY   77  69  76 S6        30.09S
OKLAHOMA CITY  MOSUNNY   75  68  78 S13       30.06S

......IOWA............

CITY           SKY/WX    TMP DP  RH WIND       PRES   REMARKS
DES MOINES     NOT AVBL
QUAD CITIES    PTSUNNY   79  69  71 W7        30.05F

......ILLINOIS........

CITY           SKY/WX    TMP DP  RH WIND       PRES   REMARKS
QUINCY         NOT AVBL
CHICAGO        MOSUNNY   77  69  76 SW5       30.07R



USA.gov is the U.S. government's official web portal to all federal, state and local government web resources and services.